Location: Niagara
(43.2500°N, 79.0670°W)
Time: 09:53:03
(UTC-05:00)

OTV 5 (USA 277) - Pass Details

Date: 14 October 2017
Orbit: 404 x 417 km, 43.0° (Epoch: 07 September)

Event Time Altitude Azimuth Distance (km) Brightness Sun altitude
Rises 21:09:36 0° 275° (W) 2,355 ? -28.8°
Reaches altitude 10° 21:11:43 10° 274° (W) 1,491 ? -29.2°
Enters shadow 21:12:30 16° 274° (W) 1,176 ? -29.3°
